![]() |
EMODnet Physics ERDDAP
Easier access to scientific data |
log in|
Brought to you by EMODnet Physics |
| Dataset Title: | NDBC - Collection of dew point temperature (DEWT) TimeSeries - IN SITU MultiPointTimeSeriesObservation
|
| Institution: | NDBC (Dataset ID: TS_DEWT_NDBC) |
| Information: | Summary
| License
| FGDC
| ISO 19115
| Metadata
| Background
| Subset
| Data Access Form
| Make a graph
|
| Name | Last modified | Size | Description | |
|---|---|---|---|---|
| Parent Directory | - | - | ||
| 42009_TS_DEWT_011981.nc | 26-Oct-2024 14:50 | 436645 | ||
| 42009_TS_DEWT_011983.nc | 26-Oct-2024 14:50 | 429765 | ||
| 42009_TS_DEWT_011987.nc | 16-Sep-2024 16:51 | 450616 | ||
| 42009_TS_DEWT_021981.nc | 26-Oct-2024 14:50 | 3765890 | ||
| 42009_TS_DEWT_021983.nc | 26-Oct-2024 14:50 | 2939687 | ||
| 42009_TS_DEWT_021987.nc | 16-Sep-2024 16:51 | 447315 | ||
| 42009_TS_DEWT_031981.nc | 26-Oct-2024 14:50 | 3088444 | ||
| 42009_TS_DEWT_031983.nc | 26-Oct-2024 14:50 | 4222278 | ||
| 42009_TS_DEWT_031984.nc | 26-Oct-2024 14:50 | 451294 | ||
| 42009_TS_DEWT_031987.nc | 16-Sep-2024 16:51 | 3414264 | ||
| 42009_TS_DEWT_041981.nc | 26-Oct-2024 14:51 | 3700711 | ||
| 42009_TS_DEWT_041983.nc | 26-Oct-2024 14:51 | 450837 | ||
| 42009_TS_DEWT_041984.nc | 26-Oct-2024 14:51 | 4204235 | ||
| 42009_TS_DEWT_041986.nc | 26-Oct-2024 14:51 | 451061 | ||
| 42009_TS_DEWT_041987.nc | 16-Sep-2024 16:51 | 4683664 | ||
| 42009_TS_DEWT_051981.nc | 26-Oct-2024 14:51 | 449811 | ||
| 42009_TS_DEWT_051983.nc | 26-Oct-2024 14:51 | 4348192 | ||
| 42009_TS_DEWT_051984.nc | 26-Oct-2024 14:51 | 450878 | ||
| 42009_TS_DEWT_051986.nc | 26-Oct-2024 14:51 | 3925479 | ||
| 42009_TS_DEWT_061983.nc | 26-Oct-2024 14:51 | 440265 | ||
| 42009_TS_DEWT_061984.nc | 26-Oct-2024 14:51 | 450359 | ||
| 42009_TS_DEWT_061986.nc | 26-Oct-2024 14:51 | 4730900 | ||
| 42009_TS_DEWT_071983.nc | 26-Oct-2024 14:51 | 448514 | ||
| 42009_TS_DEWT_071984.nc | 26-Oct-2024 14:51 | 434657 | ||
| 42009_TS_DEWT_071986.nc | 26-Oct-2024 14:51 | 3754214 | ||
| 42009_TS_DEWT_081983.nc | 26-Oct-2024 14:51 | 448860 | ||
| 42009_TS_DEWT_081984.nc | 26-Oct-2024 14:51 | 4835964 | ||
| 42009_TS_DEWT_081986.nc | 26-Oct-2024 14:51 | 4424315 | ||
| 42009_TS_DEWT_091984.nc | 26-Oct-2024 14:51 | 448025 | ||
| 42009_TS_DEWT_091986.nc | 26-Oct-2024 14:51 | 4317625 | ||
| 42009_TS_DEWT_101980.nc | 26-Oct-2024 14:51 | 4809306 | ||
| 42009_TS_DEWT_101984.nc | 26-Oct-2024 14:52 | 450484 | ||
| 42009_TS_DEWT_101986.nc | 16-Sep-2024 16:51 | 4265189 | ||
| 42009_TS_DEWT_111980.nc | 26-Oct-2024 14:52 | 4717451 | ||
| 42009_TS_DEWT_111986.nc | 16-Sep-2024 16:51 | 440070 | ||
| 42009_TS_DEWT_121980.nc | 26-Oct-2024 14:52 | 1165130 | ||
| 42009_TS_DEWT_121986.nc | 16-Sep-2024 16:51 | 1460419 | ||